Time,TemperatureF,DewpointF,PressureIn,WindDirection,WindDirectionDegrees,WindSpeedMPH,WindSpeedGustMPH,Humidity,HourlyPrecipIn,Conditions,Clouds,dailyrainin,SoftwareType,DateUTC
2013-02-16 00:03:00,45.8,41.2,30.23,WNW,296,0.0,0.0,84,0.00,CLR,,0.00,WeatherDisplay:10.37,2013-02-16 08:03:00,
2013-02-16 00:08:00,45.5,41.3,30.23,WNW,296,0.0,0.0,85,0.00,CLR,,0.00,WeatherDisplay:10.37,2013-02-16 08:08:00,
2013-02-16 00:13:00,45.5,41.3,30.22,WNW,302,0.0,0.0,85,0.00,CLR,,0.00,WeatherDisplay:10.37,2013-02-16 08:13:00,
2013-02-16 00:18:00,45.2,40.7,30.23,WNW,302,0.0,0.0,84,0.00,CLR,,0.00,WeatherDisplay:10.37,2013-02-16 08:18:00,
2013-02-16 00:23:00,44.9,40.7,30.23,WNW,302,0.0,0.0,85,0.00,CLR,,0.00,WeatherDisplay:10.37,2013-02-16 08:23:00,
2013-02-16 00:28:00,44.9,41.0,30.23,WNW,300,0.0,0.0,86,0.00,CLR,,0.00,WeatherDisplay:10.37,2013-02-16 08:28:00,
2013-02-16 00:33:00,44.7,40.8,30.23,WNW,299,0.0,0.0,86,0.00,CLR,,0.00,WeatherDisplay:10.37,2013-02-16 08:33:00,
2013-02-16 00:38:00,44.5,40.6,30.23,WNW,300,0.0,0.0,86,0.00,CLR,,0.00,WeatherDisplay:10.37,2013-02-16 08:38:00,
2013-02-16 00:43:00,44.1,39.9,30.23,WNW,300,0.0,0.0,85,0.00,CLR,,0.00,WeatherDisplay:10.37,2013-02-16 08:43:00,
2013-02-16 00:48:00,43.7,39.8,30.22,WNW,300,0.0,0.0,86,0.00,CLR,,0.00,WeatherDisplay:10.37,2013-02-16 08:48:00,
2013-02-16 00:53:00,43.5,39.9,30.22,WNW,300,0.0,0.0,87,0.00,CLR,,0.00,WeatherDisplay:10.37,2013-02-16 08:53:00,
2013-02-16 00:58:00,43.2,39.3,30.22,WNW,300,0.0,0.0,86,0.00,CLR,,0.00,WeatherDisplay:10.37,2013-02-16 08:58:00,
2013-02-16 01:03:00,43.0,39.4,30.22,WNW,300,0.0,0.0,87,0.00,CLR,,0.00,WeatherDisplay:10.37,2013-02-16 09:03:00,
2013-02-16 01:08:00,42.8,39.2,30.23,WNW,300,0.0,0.0,87,0.00,CLR,,0.00,WeatherDisplay:10.37,2013-02-16 09:08:00,
2013-02-16 01:13:00,42.7,39.7,30.22,WNW,300,0.0,0.0,89,0.00,CLR,,0.00,WeatherDisplay:10.37,2013-02-16 09:13:00,
2013-02-16 01:18:00,42.7,39.7,30.22,WNW,300,0.0,0.0,89,0.00,CLR,,0.00,WeatherDisplay:10.37,2013-02-16 09:18:00,
2013-02-16 01:23:00,42.5,39.5,30.22,WNW,300,0.0,0.0,89,0.00,CLR,,0.00,WeatherDisplay:10.37,2013-02-16 09:23:00,
2013-02-16 01:28:00,42.5,39.5,30.23,WNW,300,0.0,0.0,89,0.00,CLR,,0.00,WeatherDisplay:10.37,2013-02-16 09:28:00,
2013-02-16 01:33:00,42.9,40.2,30.22,NW,307,0.0,0.0,90,0.00,CLR,,0.00,WeatherDisplay:10.37,2013-02-16 09:33:00,
2013-02-16 01:38:00,43.2,40.5,30.23,NW,319,0.0,0.0,90,0.00,CLR,,0.00,WeatherDisplay:10.37,2013-02-16 09:38:00,
2013-02-16 01:43:00,43.4,40.4,30.23,NW,319,0.0,0.0,89,0.00,CLR,,0.00,WeatherDisplay:10.37,2013-02-16 09:43:00,
2013-02-16 01:48:00,43.4,40.4,30.22,NW,319,0.0,0.0,89,0.00,CLR,,0.00,WeatherDisplay:10.37,2013-02-16 09:48:00,
2013-02-16 01:53:00,43.6,40.6,30.22,NE,43,0.0,0.0,89,0.00,CLR,,0.00,WeatherDisplay:10.37,2013-02-16 09:53:00,
2013-02-16 01:58:00,43.9,40.9,30.22,East,82,1.2,1.2,89,0.00,CLR,,0.00,WeatherDisplay:10.37,2013-02-16 09:58:00,
2013-02-16 02:03:00,44.1,40.8,30.22,East,83,0.0,0.0,88,0.00,CLR,,0.00,WeatherDisplay:10.37,2013-02-16 10:03:00,
2013-02-16 02:08:00,44.3,41.0,30.22,East,83,0.0,0.0,88,0.00,CLR,,0.00,WeatherDisplay:10.37,2013-02-16 10:08:00,
2013-02-16 02:13:00,44.2,40.6,30.22,East,84,0.0,0.0,87,0.00,CLR,,0.00,WeatherDisplay:10.37,2013-02-16 10:13:00,
2013-02-16 02:18:00,44.0,40.4,30.21,East,83,0.0,0.0,87,0.00,CLR,,0.00,WeatherDisplay:10.37,2013-02-16 10:18:00,
2013-02-16 02:23:00,43.7,40.1,30.21,East,83,0.0,0.0,87,0.00,CLR,,0.00,WeatherDisplay:10.37,2013-02-16 10:23:00,
2013-02-16 02:28:00,43.4,39.8,30.21,East,83,0.0,0.0,87,0.00,CLR,,0.00,WeatherDisplay:10.37,2013-02-16 10:28:00,
2013-02-16 02:33:00,43.2,39.6,30.21,East,82,0.0,0.0,87,0.00,CLR,,0.00,WeatherDisplay:10.37,2013-02-16 10:33:00,
2013-02-16 02:38:00,43.1,39.8,30.21,East,82,0.0,0.0,88,0.00,CLR,,0.00,WeatherDisplay:10.37,2013-02-16 10:38:00,
2013-02-16 02:43:00,42.9,39.3,30.21,East,82,0.0,0.0,87,0.00,CLR,,0.00,WeatherDisplay:10.37,2013-02-16 10:43:00,
2013-02-16 02:48:00,42.7,39.4,30.21,East,82,0.0,0.0,88,0.00,CLR,,0.00,WeatherDisplay:10.37,2013-02-16 10:48:00,
2013-02-16 02:53:00,42.5,39.2,30.21,East,82,0.0,0.0,88,0.00,CLR,,0.00,WeatherDisplay:10.37,2013-02-16 10:53:00,
2013-02-16 02:58:00,42.4,39.1,30.21,East,82,0.0,0.0,88,0.00,CLR,,0.00,WeatherDisplay:10.37,2013-02-16 10:58:00,
2013-02-16 03:03:00,42.2,38.9,30.20,East,82,0.0,0.0,88,0.00,CLR,,0.00,WeatherDisplay:10.37,2013-02-16 11:03:00,
2013-02-16 03:08:00,42.0,39.0,30.20,East,82,0.0,0.0,89,0.00,CLR,,0.00,WeatherDisplay:10.37,2013-02-16 11:08:00,
2013-02-16 03:13:00,42.0,39.0,30.20,East,82,0.0,0.0,89,0.00,CLR,,0.00,WeatherDisplay:10.37,2013-02-16 11:13:00,
2013-02-16 03:18:00,41.9,38.9,30.20,East,82,0.0,0.0,89,0.00,CLR,,0.00,WeatherDisplay:10.37,2013-02-16 11:18:00,
2013-02-16 03:23:00,41.7,38.7,30.20,East,82,0.0,0.0,89,0.00,CLR,,0.00,WeatherDisplay:10.37,2013-02-16 11:23:00,
2013-02-16 03:28:00,41.5,38.5,30.20,East,82,0.0,0.0,89,0.00,CLR,,0.00,WeatherDisplay:10.37,2013-02-16 11:28:00,
2013-02-16 03:33:00,41.2,37.9,30.20,East,82,0.0,0.0,88,0.00,CLR,,0.00,WeatherDisplay:10.37,2013-02-16 11:33:00,
2013-02-16 03:38:00,41.1,38.1,30.20,East,82,0.0,0.0,89,0.00,CLR,,0.00,WeatherDisplay:10.37,2013-02-16 11:38:00,
2013-02-16 03:43:00,40.8,37.8,30.19,East,82,0.0,0.0,89,0.00,CLR,,0.00,WeatherDisplay:10.37,2013-02-16 11:43:00,
2013-02-16 03:48:00,41.2,38.5,30.19,East,82,0.0,0.0,90,0.00,CLR,,0.00,WeatherDisplay:10.37,2013-02-16 11:48:00,
2013-02-16 03:53:00,41.3,38.6,30.19,East,82,0.0,0.0,90,0.00,CLR,,0.00,WeatherDisplay:10.37,2013-02-16 11:53:00,
2013-02-16 03:58:00,41.2,38.5,30.19,East,82,0.0,0.0,90,0.00,CLR,,0.00,WeatherDisplay:10.37,2013-02-16 11:58:00,
2013-02-16 04:03:00,41.1,38.1,30.19,East,82,0.0,0.0,89,0.00,CLR,,0.00,WeatherDisplay:10.37,2013-02-16 12:03:00,
2013-02-16 04:08:00,41.0,38.0,30.19,East,82,0.0,0.0,89,0.00,CLR,,0.00,WeatherDisplay:10.37,2013-02-16 12:08:00,
2013-02-16 04:13:00,40.8,38.1,30.19,East,82,0.0,0.0,90,0.00,CLR,,0.00,WeatherDisplay:10.37,2013-02-16 12:13:00,
2013-02-16 04:18:00,40.7,38.0,30.19,East,82,0.0,0.0,90,0.00,CLR,,0.00,WeatherDisplay:10.37,2013-02-16 12:18:00,
2013-02-16 04:23:00,40.5,37.5,30.18,East,82,0.0,0.0,89,0.00,CLR,,0.00,WeatherDisplay:10.37,2013-02-16 12:23:00,
2013-02-16 04:28:00,40.2,37.2,30.19,East,82,0.0,0.0,89,0.00,CLR,,0.00,WeatherDisplay:10.37,2013-02-16 12:28:00,
2013-02-16 04:33:00,40.1,37.4,30.19,East,82,0.0,0.0,90,0.00,CLR,,0.00,WeatherDisplay:10.37,2013-02-16 12:33:00,
2013-02-16 04:38:00,39.9,37.2,30.18,East,82,0.0,0.0,90,0.00,CLR,,0.00,WeatherDisplay:10.37,2013-02-16 12:38:00,
2013-02-16 04:43:00,39.7,37.0,30.19,East,82,0.0,0.0,90,0.00,CLR,,0.00,WeatherDisplay:10.37,2013-02-16 12:43:00,
2013-02-16 04:48:00,39.6,37.2,30.18,East,82,0.0,0.0,91,0.00,CLR,,0.00,WeatherDisplay:10.37,2013-02-16 12:48:00,
2013-02-16 04:53:00,39.6,37.2,30.18,East,82,0.0,0.0,91,0.00,CLR,,0.00,WeatherDisplay:10.37,2013-02-16 12:53:00,
2013-02-16 04:58:00,39.7,37.3,30.19,East,82,0.0,0.0,91,0.00,CLR,,0.00,WeatherDisplay:10.37,2013-02-16 12:58:00,
2013-02-16 05:03:00,39.6,36.9,30.18,East,82,0.0,0.0,90,0.00,CLR,,0.00,WeatherDisplay:10.37,2013-02-16 13:03:00,
2013-02-16 05:08:00,39.4,37.0,30.18,East,82,0.0,0.0,91,0.00,CLR,,0.00,WeatherDisplay:10.37,2013-02-16 13:08:00,
2013-02-16 05:13:00,39.3,36.9,30.18,East,82,0.0,0.0,91,0.00,CLR,,0.00,WeatherDisplay:10.37,2013-02-16 13:13:00,
2013-02-16 05:18:00,39.2,36.8,30.18,East,82,0.0,0.0,91,0.00,CLR,,0.00,WeatherDisplay:10.37,2013-02-16 13:18:00,
2013-02-16 05:23:00,39.0,36.6,30.18,East,82,0.0,0.0,91,0.00,CLR,,0.00,WeatherDisplay:10.37,2013-02-16 13:23:00,
2013-02-16 05:28:00,38.9,36.5,30.18,East,82,0.0,0.0,91,0.00,CLR,,0.00,WeatherDisplay:10.37,2013-02-16 13:28:00,
2013-02-16 05:33:00,38.7,36.0,30.19,East,82,0.0,0.0,90,0.00,CLR,,0.00,WeatherDisplay:10.37,2013-02-16 13:33:00,
2013-02-16 05:38:00,38.6,36.2,30.19,East,82,0.0,0.0,91,0.00,CLR,,0.00,WeatherDisplay:10.37,2013-02-16 13:38:00,
2013-02-16 05:43:00,38.8,36.7,30.19,East,82,0.0,0.0,92,0.00,CLR,,0.00,WeatherDisplay:10.37,2013-02-16 13:43:00,
2013-02-16 05:48:00,38.9,36.5,30.19,East,82,0.0,0.0,91,0.00,CLR,,0.00,WeatherDisplay:10.37,2013-02-16 13:48:00,
2013-02-16 05:53:00,39.0,36.6,30.19,East,82,0.0,0.0,91,0.00,CLR,,0.00,WeatherDisplay:10.37,2013-02-16 13:53:00,
2013-02-16 05:58:00,39.1,36.4,30.19,East,82,0.0,0.0,90,0.00,CLR,,0.00,WeatherDisplay:10.37,2013-02-16 13:58:00,
2013-02-16 06:03:00,38.9,36.2,30.19,East,82,0.0,0.0,90,0.00,CLR,,0.00,WeatherDisplay:10.37,2013-02-16 14:03:00,
2013-02-16 06:08:00,38.7,36.0,30.19,East,82,0.0,0.0,90,0.00,CLR,,0.00,WeatherDisplay:10.37,2013-02-16 14:08:00,
2013-02-16 06:13:00,38.4,35.7,30.19,East,82,0.0,0.0,90,0.00,CLR,,0.00,WeatherDisplay:10.37,2013-02-16 14:13:00,
2013-02-16 06:18:00,38.3,35.9,30.19,ENE,75,1.2,1.2,91,0.00,CLR,,0.00,WeatherDisplay:10.37,2013-02-16 14:18:00,
2013-02-16 06:23:00,38.3,35.9,30.19,ENE,75,0.0,0.0,91,0.00,CLR,,0.00,WeatherDisplay:10.37,2013-02-16 14:23:00,
2013-02-16 06:28:00,38.4,35.7,30.19,ENE,75,0.0,0.0,90,0.00,CLR,,0.00,WeatherDisplay:10.37,2013-02-16 14:28:00,
2013-02-16 06:33:00,38.4,35.7,30.20,ENE,75,0.0,0.0,90,0.00,CLR,,0.00,WeatherDisplay:10.37,2013-02-16 14:33:00,
2013-02-16 06:38:00,38.3,35.6,30.20,East,81,0.0,0.0,90,0.00,CLR,,0.00,WeatherDisplay:10.37,2013-02-16 14:38:00,
2013-02-16 06:43:00,38.4,36.0,30.20,East,81,0.0,0.0,91,0.00,CLR,,0.00,WeatherDisplay:10.37,2013-02-16 14:43:00,
2013-02-16 06:48:00,38.3,35.6,30.20,East,81,0.0,0.0,90,0.00,CLR,,0.00,WeatherDisplay:10.37,2013-02-16 14:48:00,
2013-02-16 06:53:00,38.3,35.6,30.20,East,80,0.0,0.0,90,0.00,CLR,,0.00,WeatherDisplay:10.37,2013-02-16 14:53:00,
2013-02-16 06:58:00,38.2,35.5,30.20,East,80,0.0,0.0,90,0.00,CLR,,0.00,WeatherDisplay:10.37,2013-02-16 14:58:00,
2013-02-16 07:03:00,38.2,35.5,30.20,East,81,0.0,0.0,90,0.00,CLR,,0.00,WeatherDisplay:10.37,2013-02-16 15:03:00,
2013-02-16 07:08:00,38.3,35.6,30.21,East,81,0.0,0.0,90,0.00,CLR,,0.00,WeatherDisplay:10.37,2013-02-16 15:08:00,
2013-02-16 07:13:00,38.2,35.5,30.21,East,81,0.0,0.0,90,0.00,CLR,,0.00,WeatherDisplay:10.37,2013-02-16 15:13:00,
2013-02-16 07:18:00,38.2,35.5,30.21,East,81,0.0,0.0,90,0.00,CLR,,0.00,WeatherDisplay:10.37,2013-02-16 15:18:00,
2013-02-16 07:23:00,38.3,35.9,30.21,East,80,0.0,0.0,91,0.00,CLR,,0.00,WeatherDisplay:10.37,2013-02-16 15:23:00,
2013-02-16 07:28:00,38.5,36.1,30.21,East,81,0.0,0.0,91,0.00,CLR,,0.00,WeatherDisplay:10.37,2013-02-16 15:28:00,
2013-02-16 07:33:00,39.0,36.6,30.21,East,81,0.0,0.0,91,0.00,CLR,,0.00,WeatherDisplay:10.37,2013-02-16 15:33:00,
2013-02-16 07:38:00,39.4,36.7,30.21,East,81,0.0,0.0,90,0.00,CLR,,0.00,WeatherDisplay:10.37,2013-02-16 15:38:00,
2013-02-16 07:43:00,39.7,36.7,30.22,East,81,0.0,0.0,89,0.00,CLR,,0.00,WeatherDisplay:10.37,2013-02-16 15:43:00,
2013-02-16 07:48:00,40.0,37.0,30.22,East,81,0.0,0.0,89,0.00,CLR,,0.00,WeatherDisplay:10.37,2013-02-16 15:48:00,
2013-02-16 07:53:00,40.3,37.3,30.22,East,80,0.0,0.0,89,0.00,CLR,,0.00,WeatherDisplay:10.37,2013-02-16 15:53:00,
2013-02-16 07:58:00,40.6,37.6,30.22,East,80,0.0,0.0,89,0.00,CLR,,0.00,WeatherDisplay:10.37,2013-02-16 15:58:00,
2013-02-16 08:05:00,41.2,37.6,30.22,East,80,0.0,0.0,87,0.00,CLR,,0.00,WeatherDisplay:10.37,2013-02-16 16:05:00,
2013-02-16 08:10:00,41.7,38.1,30.22,East,81,0.0,0.0,87,0.00,CLR,,0.00,WeatherDisplay:10.37,2013-02-16 16:10:00,
2013-02-16 08:15:00,42.2,38.3,30.22,East,81,0.0,0.0,86,0.00,CLR,,0.00,WeatherDisplay:10.37,2013-02-16 16:15:00,
2013-02-16 08:20:00,42.8,38.6,30.22,East,81,0.0,0.0,85,0.00,CLR,,0.00,WeatherDisplay:10.37,2013-02-16 16:20:00,
2013-02-16 08:25:00,43.2,38.7,30.22,East,81,0.0,0.0,84,0.00,CLR,,0.00,WeatherDisplay:10.37,2013-02-16 16:25:00,
2013-02-16 08:30:00,43.7,39.2,30.21,East,80,0.0,0.0,84,0.00,CLR,,0.00,WeatherDisplay:10.37,2013-02-16 16:30:00,
2013-02-16 08:35:00,44.3,39.5,30.21,East,80,0.0,0.0,83,0.00,CLR,,0.00,WeatherDisplay:10.37,2013-02-16 16:35:00,
2013-02-16 08:40:00,44.9,39.4,30.21,East,80,0.0,0.0,81,0.00,CLR,,0.00,WeatherDisplay:10.37,2013-02-16 16:40:00,
2013-02-16 08:45:00,45.1,39.6,30.21,East,82,0.0,0.0,81,0.00,CLR,,0.00,WeatherDisplay:10.37,2013-02-16 16:45:00,
2013-02-16 08:50:00,45.6,39.8,30.21,East,82,0.0,0.0,80,0.00,CLR,,0.00,WeatherDisplay:10.37,2013-02-16 16:50:00,
2013-02-16 08:55:00,46.6,40.1,30.21,East,82,0.0,0.0,78,0.00,CLR,,0.00,WeatherDisplay:10.37,2013-02-16 16:55:00,
2013-02-16 09:00:00,47.6,40.4,30.21,East,82,0.0,0.0,76,0.00,CLR,,0.00,WeatherDisplay:10.37,2013-02-16 17:00:00,
2013-02-16 09:05:00,48.5,40.6,30.21,East,85,0.0,0.0,74,0.00,CLR,,0.00,WeatherDisplay:10.37,2013-02-16 17:05:00,
2013-02-16 09:10:00,49.4,41.1,30.21,East,85,0.0,0.0,73,0.00,CLR,,0.00,WeatherDisplay:10.37,2013-02-16 17:10:00,
2013-02-16 09:15:00,50.2,40.8,30.21,East,83,0.0,0.0,70,0.00,CLR,,0.00,WeatherDisplay:10.37,2013-02-16 17:15:00,
2013-02-16 09:20:00,51.2,42.1,30.21,NNW,346,1.2,1.2,71,0.00,CLR,,0.00,WeatherDisplay:10.37,2013-02-16 17:20:00,
2013-02-16 09:25:00,52.2,40.8,30.21,NNW,335,2.3,2.3,65,0.00,CLR,,0.00,WeatherDisplay:10.37,2013-02-16 17:25:00,
2013-02-16 09:30:00,53.1,40.8,30.21,North,352,0.0,0.3,63,0.00,CLR,,0.00,WeatherDisplay:10.37,2013-02-16 17:30:00,
2013-02-16 09:35:00,53.7,40.6,30.21,West,269,0.0,0.0,61,0.00,CLR,,0.00,WeatherDisplay:10.37,2013-02-16 17:35:00,
2013-02-16 09:40:00,54.2,41.0,30.20,West,269,0.0,0.0,61,0.00,CLR,,0.00,WeatherDisplay:10.37,2013-02-16 17:40:00,
2013-02-16 09:45:00,54.8,40.7,30.20,NNW,336,1.2,0.0,59,0.00,CLR,,0.00,WeatherDisplay:10.37,2013-02-16 17:45:00,
2013-02-16 09:50:00,55.4,40.9,30.20,NNW,335,1.2,0.0,58,0.00,CLR,,0.00,WeatherDisplay:10.37,2013-02-16 17:50:00,
2013-02-16 09:55:00,56.1,41.1,30.20,NNW,330,0.0,0.2,57,0.00,CLR,,0.00,WeatherDisplay:10.37,2013-02-16 17:55:00,
2013-02-16 10:00:00,56.9,41.4,30.20,NNW,330,0.0,0.0,56,0.00,CLR,,0.00,WeatherDisplay:10.37,2013-02-16 18:00:00,
2013-02-16 10:05:00,57.7,41.2,30.20,SW,235,1.2,1.2,54,0.00,CLR,,0.00,WeatherDisplay:10.37,2013-02-16 18:05:00,
2013-02-16 10:10:00,58.4,41.3,30.19,North,356,1.0,1.0,53,0.00,CLR,,0.00,WeatherDisplay:10.37,2013-02-16 18:10:00,
2013-02-16 10:15:00,58.9,41.3,30.20,NNW,333,1.2,0.0,52,0.00,CLR,,0.00,WeatherDisplay:10.37,2013-02-16 18:15:00,
2013-02-16 10:20:00,59.3,42.6,30.19,North,356,0.0,0.4,54,0.00,CLR,,0.00,WeatherDisplay:10.37,2013-02-16 18:20:00,
2013-02-16 10:25:00,59.7,42.0,30.19,North,356,0.0,0.0,52,0.00,CLR,,0.00,WeatherDisplay:10.37,2013-02-16 18:25:00,
2013-02-16 10:30:00,60.3,41.0,30.19,WSW,258,1.2,0.0,49,0.00,CLR,,0.00,WeatherDisplay:10.37,2013-02-16 18:30:00,
2013-02-16 10:35:00,60.9,42.1,30.19,NNW,339,1.2,1.2,50,0.00,CLR,,0.00,WeatherDisplay:10.37,2013-02-16 18:35:00,
2013-02-16 10:40:00,61.4,43.1,30.19,North,353,2.3,2.3,51,0.00,CLR,,0.00,WeatherDisplay:10.37,2013-02-16 18:40:00,
2013-02-16 10:45:00,62.0,43.7,30.18,NNW,339,2.3,2.3,51,0.00,CLR,,0.00,WeatherDisplay:10.37,2013-02-16 18:45:00,
2013-02-16 10:50:00,62.4,43.0,30.18,NW,319,2.3,2.3,49,0.00,CLR,,0.00,WeatherDisplay:10.37,2013-02-16 18:50:00,
2013-02-16 10:55:00,62.9,43.4,30.18,NNW,328,2.3,2.3,49,0.00,CLR,,0.00,WeatherDisplay:10.37,2013-02-16 18:55:00,
2013-02-16 11:00:00,63.3,43.3,30.18,NW,322,0.0,0.0,48,0.00,CLR,,0.00,WeatherDisplay:10.37,2013-02-16 19:00:00,
2013-02-16 11:05:00,63.7,43.6,30.18,NW,322,2.3,2.3,48,0.00,CLR,,0.00,WeatherDisplay:10.37,2013-02-16 19:05:00,
2013-02-16 11:10:00,64.0,43.9,30.17,WSW,240,0.0,0.0,48,0.00,CLR,,0.00,WeatherDisplay:10.37,2013-02-16 19:10:00,
2013-02-16 11:15:00,64.6,44.5,30.17,West,269,1.2,1.2,48,0.00,CLR,,0.00,WeatherDisplay:10.37,2013-02-16 19:15:00,
2013-02-16 11:20:00,65.3,45.1,30.17,West,278,0.0,0.0,48,0.00,CLR,,0.00,WeatherDisplay:10.37,2013-02-16 19:20:00,
2013-02-16 11:25:00,66.0,45.2,30.17,WNW,285,1.2,0.0,47,0.00,CLR,,0.00,WeatherDisplay:10.37,2013-02-16 19:25:00,
2013-02-16 11:30:00,66.5,45.1,30.17,SSE,166,1.2,0.0,46,0.00,CLR,,0.00,WeatherDisplay:10.37,2013-02-16 19:30:00,
2013-02-16 11:35:00,66.8,46.5,30.17,WSW,240,1.2,1.2,48,0.00,CLR,,0.00,WeatherDisplay:10.37,2013-02-16 19:35:00,
2013-02-16 11:40:00,66.9,45.4,30.16,SSW,192,2.3,2.3,46,0.00,CLR,,0.00,WeatherDisplay:10.37,2013-02-16 19:40:00,
2013-02-16 11:45:00,67.5,47.1,30.16,WNW,295,1.2,1.2,48,0.00,CLR,,0.00,WeatherDisplay:10.37,2013-02-16 19:45:00,
2013-02-16 11:50:00,68.1,46.5,30.16,ESE,117,2.3,2.3,46,0.00,CLR,,0.00,WeatherDisplay:10.37,2013-02-16 19:50:00,
2013-02-16 11:55:00,68.1,46.5,30.16,WNW,285,1.2,1.2,46,0.00,CLR,,0.00,WeatherDisplay:10.37,2013-02-16 19:55:00,
2013-02-16 12:00:00,68.0,48.1,30.15,WNW,288,2.3,2.3,49,0.00,CLR,,0.00,WeatherDisplay:10.37,2013-02-16 20:00:00,
2013-02-16 12:05:00,67.7,48.4,30.15,WSW,255,1.2,0.0,50,0.00,CLR,,0.00,WeatherDisplay:10.37,2013-02-16 20:05:00,
2013-02-16 12:10:00,67.6,48.3,30.15,North,9,2.3,2.3,50,0.00,CLR,,0.00,WeatherDisplay:10.37,2013-02-16 20:10:00,
2013-02-16 12:15:00,67.3,48.0,30.15,North,4,2.3,2.3,50,0.00,CLR,,0.00,WeatherDisplay:10.37,2013-02-16 20:15:00,
2013-02-16 12:20:00,66.7,47.5,30.14,NW,305,3.5,3.5,50,0.00,CLR,,0.00,WeatherDisplay:10.37,2013-02-16 20:20:00,
2013-02-16 12:25:00,66.4,47.7,30.14,NNE,16,4.0,4.0,51,0.00,CLR,,0.00,WeatherDisplay:10.37,2013-02-16 20:25:00,
2013-02-16 12:30:00,66.4,47.2,30.14,North,354,2.3,2.3,50,0.00,CLR,,0.00,WeatherDisplay:10.37,2013-02-16 20:30:00,
2013-02-16 12:35:00,66.2,47.5,30.14,WNW,285,3.5,3.5,51,0.00,CLR,,0.00,WeatherDisplay:10.37,2013-02-16 20:35:00,
2013-02-16 12:40:00,66.2,49.6,30.13,West,278,3.5,3.5,55,0.00,CLR,,0.00,WeatherDisplay:10.37,2013-02-16 20:40:00,
2013-02-16 12:45:00,66.0,49.8,30.13,West,259,3.5,3.5,56,0.00,CLR,,0.00,WeatherDisplay:10.37,2013-02-16 20:45:00,
2013-02-16 12:50:00,66.0,49.8,30.13,NNW,339,2.3,2.3,56,0.00,CLR,,0.00,WeatherDisplay:10.37,2013-02-16 20:50:00,
2013-02-16 12:55:00,66.0,49.8,30.12,NNW,345,4.0,4.0,56,0.00,CLR,,0.00,WeatherDisplay:10.37,2013-02-16 20:55:00,
2013-02-16 13:00:00,65.9,49.8,30.12,NNW,333,5.0,5.0,56,0.00,CLR,,0.00,WeatherDisplay:10.37,2013-02-16 21:00:00,
2013-02-16 13:05:00,65.7,50.0,30.12,North,356,3.5,3.5,57,0.00,CLR,,0.00,WeatherDisplay:10.37,2013-02-16 21:05:00,
2013-02-16 13:10:00,65.5,49.9,30.12,North,6,3.0,3.0,57,0.00,CLR,,0.00,WeatherDisplay:10.37,2013-02-16 21:10:00,
2013-02-16 13:15:00,65.4,50.2,30.11,NW,316,3.5,3.5,58,0.00,CLR,,0.00,WeatherDisplay:10.37,2013-02-16 21:15:00,
2013-02-16 13:20:00,65.3,49.2,30.11,WNW,291,2.3,2.3,56,0.00,CLR,,0.00,WeatherDisplay:10.37,2013-02-16 21:20:00,
2013-02-16 13:25:00,65.7,47.6,30.11,NNW,341,3.0,3.0,52,0.00,CLR,,0.00,WeatherDisplay:10.37,2013-02-16 21:25:00,
2013-02-16 13:30:00,65.7,47.6,30.11,West,280,2.3,2.3,52,0.00,CLR,,0.00,WeatherDisplay:10.37,2013-02-16 21:30:00,
2013-02-16 13:35:00,66.2,49.1,30.10,North,5,3.5,3.5,54,0.00,CLR,,0.00,WeatherDisplay:10.37,2013-02-16 21:35:00,
2013-02-16 13:40:00,66.8,49.1,30.10,NNE,15,3.5,3.5,53,0.00,CLR,,0.00,WeatherDisplay:10.37,2013-02-16 21:40:00,
2013-02-16 13:45:00,67.4,48.6,30.10,NNW,328,3.5,3.5,51,0.00,CLR,,0.00,WeatherDisplay:10.37,2013-02-16 21:45:00,
2013-02-16 13:50:00,68.0,47.6,30.09,West,281,3.5,3.5,48,0.00,CLR,,0.00,WeatherDisplay:10.37,2013-02-16 21:50:00,
2013-02-16 13:55:00,68.7,47.6,30.09,North,4,4.0,4.0,47,0.00,CLR,,0.00,WeatherDisplay:10.37,2013-02-16 21:55:00,
2013-02-16 14:00:00,68.7,44.7,30.09,NNW,342,3.5,3.5,42,0.00,CLR,,0.00,WeatherDisplay:10.37,2013-02-16 22:00:00,
2013-02-16 14:05:00,68.6,44.6,30.09,NNW,342,3.5,3.5,42,0.00,CLR,,0.00,WeatherDisplay:10.37,2013-02-16 22:05:00,
2013-02-16 14:10:00,68.8,45.4,30.08,NNW,347,2.3,2.3,43,0.00,CLR,,0.00,WeatherDisplay:10.37,2013-02-16 22:10:00,
2013-02-16 14:15:00,69.7,45.6,30.08,NW,304,1.2,1.2,42,0.00,CLR,,0.00,WeatherDisplay:10.37,2013-02-16 22:15:00,
2013-02-16 14:20:00,70.1,44.6,30.08,NW,306,3.5,3.5,40,0.00,CLR,,0.00,WeatherDisplay:10.37,2013-02-16 22:20:00,
2013-02-16 14:25:00,70.5,43.7,30.08,NW,322,3.5,3.5,38,0.00,CLR,,0.00,WeatherDisplay:10.37,2013-02-16 22:25:00,
2013-02-16 14:30:00,70.5,42.2,30.08,WSW,253,3.5,3.5,36,0.00,CLR,,0.00,WeatherDisplay:10.37,2013-02-16 22:30:00,
2013-02-16 14:35:00,70.5,43.0,30.08,NNW,330,2.3,2.3,37,0.00,CLR,,0.00,WeatherDisplay:10.37,2013-02-16 22:35:00,
2013-02-16 14:40:00,70.7,44.5,30.07,NW,322,3.5,3.5,39,0.00,CLR,,0.00,WeatherDisplay:10.37,2013-02-16 22:40:00,
2013-02-16 14:45:00,70.8,44.6,30.07,West,259,3.5,3.5,39,0.00,CLR,,0.00,WeatherDisplay:10.37,2013-02-16 22:45:00,
2013-02-16 14:50:00,71.2,42.9,30.07,NW,325,3.5,3.5,36,0.00,CLR,,0.00,WeatherDisplay:10.37,2013-02-16 22:50:00,
2013-02-16 14:55:00,71.2,42.9,30.07,NNE,18,4.0,4.0,36,0.00,CLR,,0.00,WeatherDisplay:10.37,2013-02-16 22:55:00,
2013-02-16 15:00:00,71.3,43.0,30.07,North,352,2.3,2.3,36,0.00,CLR,,0.00,WeatherDisplay:10.37,2013-02-16 23:00:00,
2013-02-16 15:05:00,71.7,42.6,30.07,WNW,283,2.3,2.3,35,0.00,CLR,,0.00,WeatherDisplay:10.37,2013-02-16 23:05:00,
2013-02-16 15:10:00,72.0,41.3,30.06,NNW,345,1.2,1.2,33,0.00,CLR,,0.00,WeatherDisplay:10.37,2013-02-16 23:10:00,
2013-02-16 15:15:00,72.2,39.9,30.06,West,278,2.3,2.3,31,0.00,CLR,,0.00,WeatherDisplay:10.37,2013-02-16 23:15:00,
2013-02-16 15:20:00,72.1,38.9,30.06,SE,135,3.5,3.5,30,0.00,CLR,,0.00,WeatherDisplay:10.37,2013-02-16 23:20:00,
2013-02-16 15:25:00,72.0,38.9,30.06,North,356,3.5,3.5,30,0.00,CLR,,0.00,WeatherDisplay:10.37,2013-02-16 23:25:00,
2013-02-16 15:30:00,71.4,41.6,30.06,NNW,345,1.2,0.0,34,0.00,CLR,,0.00,WeatherDisplay:10.37,2013-02-16 23:30:00,
2013-02-16 15:35:00,71.1,38.1,30.06,NW,309,2.3,2.3,30,0.00,CLR,,0.00,WeatherDisplay:10.37,2013-02-16 23:35:00,
2013-02-16 15:40:00,70.9,37.9,30.06,NW,324,3.5,3.5,30,0.00,CLR,,0.00,WeatherDisplay:10.37,2013-02-16 23:40:00,
2013-02-16 15:45:00,70.5,38.4,30.06,North,350,3.5,3.5,31,0.00,CLR,,0.00,WeatherDisplay:10.37,2013-02-16 23:45:00,
2013-02-16 15:50:00,70.5,39.2,30.06,NW,313,3.5,3.5,32,0.00,CLR,,0.00,WeatherDisplay:10.37,2013-02-16 23:50:00,
2013-02-16 15:55:00,70.5,40.0,30.05,North,356,3.5,3.5,33,0.00,CLR,,0.00,WeatherDisplay:10.37,2013-02-16 23:55:00,
2013-02-16 16:00:00,70.7,37.7,30.05,NW,325,3.5,3.5,30,0.00,CLR,,0.00,WeatherDisplay:10.37,2013-02-17 00:00:00,
2013-02-16 16:05:00,71.2,38.2,30.05,North,354,3.5,3.5,30,0.00,CLR,,0.00,WeatherDisplay:10.37,2013-02-17 00:05:00,
2013-02-16 16:10:00,70.8,39.5,30.05,WNW,302,3.5,3.5,32,0.00,CLR,,0.00,WeatherDisplay:10.37,2013-02-17 00:10:00,
2013-02-16 16:15:00,70.3,39.0,30.05,WNW,290,3.5,3.5,32,0.00,CLR,,0.00,WeatherDisplay:10.37,2013-02-17 00:15:00,
2013-02-16 16:20:00,69.8,37.8,30.05,NNE,20,2.3,2.3,31,0.00,CLR,,0.00,WeatherDisplay:10.37,2013-02-17 00:20:00,
2013-02-16 16:25:00,69.3,37.3,30.05,NNW,333,1.2,0.0,31,0.00,CLR,,0.00,WeatherDisplay:10.37,2013-02-17 00:25:00,
2013-02-16 16:30:00,68.9,37.8,30.05,NNW,338,1.2,1.2,32,0.00,CLR,,0.00,WeatherDisplay:10.37,2013-02-17 00:30:00,
2013-02-16 16:35:00,68.7,38.4,30.04,NNW,328,1.2,1.2,33,0.00,CLR,,0.00,WeatherDisplay:10.37,2013-02-17 00:35:00,
2013-02-16 16:40:00,68.4,39.7,30.04,NNW,333,2.3,2.3,35,0.00,CLR,,0.00,WeatherDisplay:10.37,2013-02-17 00:40:00,
2013-02-16 16:45:00,68.2,40.2,30.04,North,358,1.2,0.0,36,0.00,CLR,,0.00,WeatherDisplay:10.37,2013-02-17 00:45:00,
2013-02-16 16:50:00,68.0,40.0,30.04,NW,324,1.2,1.2,36,0.00,CLR,,0.00,WeatherDisplay:10.37,2013-02-17 00:50:00,
2013-02-16 16:55:00,67.8,40.6,30.04,NW,324,1.2,1.2,37,0.00,CLR,,0.00,WeatherDisplay:10.37,2013-02-17 00:55:00,
2013-02-16 17:00:00,67.5,39.6,30.04,NW,324,1.2,0.0,36,0.00,CLR,,0.00,WeatherDisplay:10.37,2013-02-17 01:00:00,
2013-02-16 17:05:00,67.2,40.0,30.04,NW,325,0.0,0.0,37,0.00,CLR,,0.00,WeatherDisplay:10.37,2013-02-17 01:05:00,
2013-02-16 17:10:00,66.9,39.8,30.04,NW,324,0.0,0.0,37,0.00,CLR,,0.00,WeatherDisplay:10.37,2013-02-17 01:10:00,
2013-02-16 17:15:00,66.6,40.2,30.04,NNW,328,0.0,0.0,38,0.00,CLR,,0.00,WeatherDisplay:10.37,2013-02-17 01:15:00,
2013-02-16 17:20:00,66.3,39.9,30.04,NNW,327,0.0,0.0,38,0.00,CLR,,0.00,WeatherDisplay:10.37,2013-02-17 01:20:00,
2013-02-16 17:25:00,66.0,40.3,30.04,NNW,328,0.0,0.0,39,0.00,CLR,,0.00,WeatherDisplay:10.37,2013-02-17 01:25:00,
2013-02-16 17:30:00,65.6,41.3,30.04,NNW,328,0.0,0.0,41,0.00,CLR,,0.00,WeatherDisplay:10.37,2013-02-17 01:30:00,
2013-02-16 17:35:00,65.1,40.8,30.04,NNW,328,0.0,0.0,41,0.00,CLR,,0.00,WeatherDisplay:10.37,2013-02-17 01:35:00,
2013-02-16 17:40:00,64.5,40.3,30.03,NNW,328,0.0,0.0,41,0.00,CLR,,0.00,WeatherDisplay:10.37,2013-02-17 01:40:00,
2013-02-16 17:45:00,63.8,40.3,30.03,NNW,328,0.0,0.0,42,0.00,CLR,,0.00,WeatherDisplay:10.37,2013-02-17 01:45:00,
2013-02-16 17:50:00,63.3,40.4,30.03,NNW,328,0.0,0.0,43,0.00,CLR,,0.00,WeatherDisplay:10.37,2013-02-17 01:50:00,
2013-02-16 17:55:00,62.8,41.1,30.03,NNW,328,0.0,0.0,45,0.00,CLR,,0.00,WeatherDisplay:10.37,2013-02-17 01:55:00,
2013-02-16 18:00:00,62.1,40.5,30.03,NNW,328,0.0,0.0,45,0.00,CLR,,0.00,WeatherDisplay:10.37,2013-02-17 02:00:00,
2013-02-16 18:05:00,61.7,40.7,30.03,NNW,328,0.0,0.0,46,0.00,CLR,,0.00,WeatherDisplay:10.37,2013-02-17 02:05:00,
2013-02-16 18:10:00,61.5,41.1,30.03,NNW,328,0.0,0.0,47,0.00,CLR,,0.00,WeatherDisplay:10.37,2013-02-17 02:10:00,
2013-02-16 18:15:00,61.3,40.9,30.03,NNW,328,0.0,0.0,47,0.00,CLR,,0.00,WeatherDisplay:10.37,2013-02-17 02:15:00,
2013-02-16 18:20:00,61.0,41.2,30.03,NNW,328,0.0,0.0,48,0.00,CLR,,0.00,WeatherDisplay:10.37,2013-02-17 02:20:00,
2013-02-16 18:25:00,60.7,41.4,30.02,NNW,328,1.2,0.0,49,0.00,CLR,,0.00,WeatherDisplay:10.37,2013-02-17 02:25:00,
2013-02-16 18:30:00,60.3,41.6,30.02,NNW,328,0.0,0.0,50,0.00,CLR,,0.00,WeatherDisplay:10.37,2013-02-17 02:30:00,
2013-02-16 18:35:00,59.6,41.4,30.02,NNW,328,0.0,0.0,51,0.00,CLR,,0.00,WeatherDisplay:10.37,2013-02-17 02:35:00,
2013-02-16 18:40:00,58.9,41.3,30.03,NNW,328,0.0,0.0,52,0.00,CLR,,0.00,WeatherDisplay:10.37,2013-02-17 02:40:00,
2013-02-16 18:45:00,58.5,41.4,30.03,NNW,328,0.0,0.0,53,0.00,CLR,,0.00,WeatherDisplay:10.37,2013-02-17 02:45:00,
2013-02-16 18:50:00,58.1,41.5,30.03,NNW,328,0.0,0.0,54,0.00,CLR,,0.00,WeatherDisplay:10.37,2013-02-17 02:50:00,
2013-02-16 18:55:00,57.7,41.6,30.02,NNW,328,0.0,0.0,55,0.00,CLR,,0.00,WeatherDisplay:10.37,2013-02-17 02:55:00,
2013-02-16 19:00:00,57.1,41.5,30.03,NNW,328,0.0,0.0,56,0.00,CLR,,0.00,WeatherDisplay:10.37,2013-02-17 03:00:00,
2013-02-16 19:05:00,56.5,41.4,30.02,NNW,328,0.0,0.0,57,0.00,CLR,,0.00,WeatherDisplay:10.37,2013-02-17 03:05:00,
2013-02-16 19:10:00,55.8,41.7,30.02,NNW,328,0.0,0.0,59,0.00,CLR,,0.00,WeatherDisplay:10.37,2013-02-17 03:10:00,
2013-02-16 19:15:00,55.1,41.9,30.03,NNW,328,0.0,0.0,61,0.00,CLR,,0.00,WeatherDisplay:10.37,2013-02-17 03:15:00,
2013-02-16 19:20:00,54.4,41.2,30.03,NNW,328,0.0,0.0,61,0.00,CLR,,0.00,WeatherDisplay:10.37,2013-02-17 03:20:00,
2013-02-16 19:25:00,53.9,41.2,30.03,NNW,328,0.0,0.0,62,0.00,CLR,,0.00,WeatherDisplay:10.37,2013-02-17 03:25:00,
2013-02-16 19:30:00,53.2,40.5,30.03,NNW,328,0.0,0.0,62,0.00,CLR,,0.00,WeatherDisplay:10.37,2013-02-17 03:30:00,
2013-02-16 19:35:00,52.9,41.4,30.03,NNW,328,0.0,0.0,65,0.00,CLR,,0.00,WeatherDisplay:10.37,2013-02-17 03:35:00,
2013-02-16 19:40:00,52.6,41.6,30.03,NNW,328,0.0,0.0,66,0.00,CLR,,0.00,WeatherDisplay:10.37,2013-02-17 03:40:00,
2013-02-16 19:45:00,52.2,41.2,30.03,NNW,328,0.0,0.0,66,0.00,CLR,,0.00,WeatherDisplay:10.37,2013-02-17 03:45:00,
2013-02-16 19:50:00,51.7,41.1,30.03,NNW,328,0.0,0.0,67,0.00,CLR,,0.00,WeatherDisplay:10.37,2013-02-17 03:50:00,
2013-02-16 19:55:00,51.3,41.1,30.03,NW,326,0.0,0.0,68,0.00,CLR,,0.00,WeatherDisplay:10.37,2013-02-17 03:55:00,
2013-02-16 20:00:00,50.8,41.4,30.03,NNW,328,0.0,0.0,70,0.00,CLR,,0.00,WeatherDisplay:10.37,2013-02-17 04:00:00,
2013-02-16 20:05:00,50.5,41.4,30.03,NNW,328,0.0,0.0,71,0.00,CLR,,0.00,WeatherDisplay:10.37,2013-02-17 04:05:00,
2013-02-16 20:10:00,50.0,41.0,30.04,NW,326,0.0,0.0,71,0.00,CLR,,0.00,WeatherDisplay:10.37,2013-02-17 04:10:00,
2013-02-16 20:15:00,49.7,41.0,30.04,NW,326,0.0,0.0,72,0.00,CLR,,0.00,WeatherDisplay:10.37,2013-02-17 04:15:00,
2013-02-16 20:20:00,49.4,40.7,30.04,NNW,328,0.0,0.0,72,0.00,CLR,,0.00,WeatherDisplay:10.37,2013-02-17 04:20:00,
2013-02-16 20:25:00,49.3,41.4,30.04,NNW,328,0.0,0.0,74,0.00,CLR,,0.00,WeatherDisplay:10.37,2013-02-17 04:25:00,
2013-02-16 20:30:00,49.0,40.7,30.04,NNW,328,0.0,0.0,73,0.00,CLR,,0.00,WeatherDisplay:10.37,2013-02-17 04:30:00,
2013-02-16 20:35:00,48.8,40.5,30.04,NW,326,0.0,0.0,73,0.00,CLR,,0.00,WeatherDisplay:10.37,2013-02-17 04:35:00,
2013-02-16 20:40:00,48.6,40.7,30.04,NNW,328,0.0,0.0,74,0.00,CLR,,0.00,WeatherDisplay:10.37,2013-02-17 04:40:00,
2013-02-16 20:45:00,48.6,40.7,30.04,NNW,328,0.0,0.0,74,0.00,CLR,,0.00,WeatherDisplay:10.37,2013-02-17 04:45:00,
2013-02-16 20:50:00,48.6,40.7,30.04,NNW,328,0.0,0.0,74,0.00,CLR,,0.00,WeatherDisplay:10.37,2013-02-17 04:50:00,
2013-02-16 20:55:00,48.5,40.9,30.04,NNW,327,0.0,0.0,75,0.00,CLR,,0.00,WeatherDisplay:10.37,2013-02-17 04:55:00,
2013-02-16 21:00:00,48.5,40.9,30.04,NNW,328,0.0,0.0,75,0.00,CLR,,0.00,WeatherDisplay:10.37,2013-02-17 05:00:00,
2013-02-16 21:05:00,49.1,41.2,30.04,NNW,328,1.2,1.2,74,0.00,CLR,,0.00,WeatherDisplay:10.37,2013-02-17 05:05:00,
2013-02-16 21:10:00,49.8,41.5,30.04,SE,128,1.2,0.0,73,0.00,CLR,,0.00,WeatherDisplay:10.37,2013-02-17 05:10:00,
2013-02-16 21:15:00,50.3,41.6,30.04,SE,128,0.0,0.0,72,0.00,CLR,,0.00,WeatherDisplay:10.37,2013-02-17 05:15:00,
2013-02-16 21:20:00,50.3,41.3,30.04,SE,129,0.0,0.0,71,0.00,CLR,,0.00,WeatherDisplay:10.37,2013-02-17 05:20:00,
2013-02-16 21:25:00,50.2,41.2,30.03,SE,128,0.0,0.0,71,0.00,CLR,,0.00,WeatherDisplay:10.37,2013-02-17 05:25:00,
2013-02-16 21:30:00,50.0,41.0,30.03,SE,128,0.0,0.0,71,0.00,CLR,,0.00,WeatherDisplay:10.37,2013-02-17 05:30:00,
2013-02-16 21:35:00,49.8,40.8,30.04,SE,128,0.0,0.0,71,0.00,CLR,,0.00,WeatherDisplay:10.37,2013-02-17 05:35:00,
2013-02-16 21:40:00,49.5,40.8,30.04,SE,128,0.0,0.0,72,0.00,CLR,,0.00,WeatherDisplay:10.37,2013-02-17 05:40:00,
2013-02-16 21:45:00,49.0,40.7,30.04,SE,128,0.0,0.0,73,0.00,CLR,,0.00,WeatherDisplay:10.37,2013-02-17 05:45:00,
2013-02-16 21:50:00,48.7,40.8,30.04,SE,128,0.0,0.0,74,0.00,CLR,,0.00,WeatherDisplay:10.37,2013-02-17 05:50:00,
2013-02-16 21:55:00,48.7,41.1,30.04,SE,130,0.0,0.0,75,0.00,CLR,,0.00,WeatherDisplay:10.37,2013-02-17 05:55:00,
2013-02-16 22:00:00,48.8,40.9,30.03,SE,129,0.0,0.0,74,0.00,CLR,,0.00,WeatherDisplay:10.37,2013-02-17 06:00:00,
2013-02-16 22:05:00,48.5,40.2,30.03,SE,129,0.0,0.0,73,0.00,CLR,,0.00,WeatherDisplay:10.37,2013-02-17 06:05:00,
2013-02-16 22:10:00,48.2,40.6,30.03,SE,130,0.0,0.0,75,0.00,CLR,,0.00,WeatherDisplay:10.37,2013-02-17 06:10:00,
2013-02-16 22:15:00,48.0,40.5,30.04,SE,130,0.0,0.0,75,0.00,CLR,,0.00,WeatherDisplay:10.37,2013-02-17 06:15:00,
2013-02-16 22:20:00,47.8,40.6,30.04,SE,129,0.0,0.0,76,0.00,CLR,,0.00,WeatherDisplay:10.37,2013-02-17 06:20:00,
2013-02-16 22:25:00,47.4,40.6,30.04,SE,129,0.0,0.0,77,0.00,CLR,,0.00,WeatherDisplay:10.37,2013-02-17 06:25:00,
2013-02-16 22:30:00,47.0,39.8,30.04,SE,130,0.0,0.0,76,0.00,CLR,,0.00,WeatherDisplay:10.37,2013-02-17 06:30:00,
2013-02-16 22:35:00,46.7,40.2,30.03,SE,129,0.0,0.0,78,0.00,CLR,,0.00,WeatherDisplay:10.37,2013-02-17 06:35:00,
2013-02-16 22:40:00,46.4,39.9,30.03,SE,130,0.0,0.0,78,0.00,CLR,,0.00,WeatherDisplay:10.37,2013-02-17 06:40:00,
2013-02-16 22:45:00,46.1,39.9,30.03,SE,130,0.0,0.0,79,0.00,CLR,,0.00,WeatherDisplay:10.37,2013-02-17 06:45:00,
2013-02-16 22:50:00,45.7,39.6,30.03,SE,130,0.0,0.0,79,0.00,CLR,,0.00,WeatherDisplay:10.37,2013-02-17 06:50:00,
2013-02-16 22:55:00,45.3,39.5,30.03,SE,129,0.0,0.0,80,0.00,CLR,,0.00,WeatherDisplay:10.37,2013-02-17 06:55:00,
2013-02-16 23:00:00,44.9,39.4,30.02,SE,129,0.0,0.0,81,0.00,CLR,,0.00,WeatherDisplay:10.37,2013-02-17 07:00:00,
2013-02-16 23:05:00,44.8,39.6,30.02,SE,129,0.0,0.0,82,0.00,CLR,,0.00,WeatherDisplay:10.37,2013-02-17 07:05:00,
2013-02-16 23:10:00,44.6,39.4,30.02,SE,129,0.0,0.0,82,0.00,CLR,,0.00,WeatherDisplay:10.37,2013-02-17 07:10:00,
2013-02-16 23:15:00,44.7,40.2,30.02,SE,130,0.0,0.0,84,0.00,CLR,,0.00,WeatherDisplay:10.37,2013-02-17 07:15:00,
2013-02-16 23:20:00,45.0,39.8,30.02,SE,129,0.0,0.0,82,0.00,CLR,,0.00,WeatherDisplay:10.37,2013-02-17 07:20:00,
2013-02-16 23:25:00,44.8,39.6,30.02,SE,129,0.0,0.0,82,0.00,CLR,,0.00,WeatherDisplay:10.37,2013-02-17 07:25:00,
2013-02-16 23:30:00,44.6,39.4,30.02,SE,130,0.0,0.0,82,0.00,CLR,,0.00,WeatherDisplay:10.37,2013-02-17 07:30:00,
2013-02-16 23:35:00,44.4,39.6,30.02,SE,130,0.0,0.0,83,0.00,CLR,,0.00,WeatherDisplay:10.37,2013-02-17 07:35:00,
2013-02-16 23:40:00,44.1,39.3,30.02,SE,129,0.0,0.0,83,0.00,CLR,,0.00,WeatherDisplay:10.37,2013-02-17 07:40:00,
2013-02-16 23:45:00,43.9,39.1,30.02,SE,130,0.0,0.0,83,0.00,CLR,,0.00,WeatherDisplay:10.37,2013-02-17 07:45:00,
2013-02-16 23:50:00,43.6,39.1,30.02,SE,129,0.0,0.0,84,0.00,CLR,,0.00,WeatherDisplay:10.37,2013-02-17 07:50:00,
2013-02-16 23:55:00,43.3,39.1,30.02,SE,130,0.0,0.0,85,0.00,CLR,,0.00,WeatherDisplay:10.37,2013-02-17 07:55:00,